Location: Gensac
(43.2177°N, 1.1313°E)
Time: 09:25:17
(UTC+00:00)

IGS 5A - Pass Details

Date: 22 March 2026
Orbit: 551 x 554 km, 97.4° (Epoch: 8 January)

Event Time Altitude Azimuth Distance (km) Brightness Sun altitude
Rises 05:01:26 0° 22° (NNE) 2,734 7.4 -10.6°
Reaches altitude 10° 05:03:46 10° 33° (NNE) 1,835 6.6 -10.2°
Maximum altitude 05:07:18 31° 96° (E) 988 5.5 -9.6°
Drops below altitude 10° 05:10:49 10° 159° (SSE) 1,822 6.1 -8.9°
Sets 05:13:07 0° 170° (S) 2,710 6.9 -8.5°
